Weather in Viareggio

Italy     43°52′52″N   10°14′06″E
temp.,
°C
wind,
m/s
gust,
m/s
humid.,
%
clouds,
%
prec.,
mm/h
press.,
hPa
HPBL,
m
24 july, sat
sat2423:00+21ne1179100 0.0 101521
02:00+20ne118162 0.0 101525
05:00+19ene2278100 0.0 101433
08:00+22e11655 0.0 1014167
11:00+26wsw334471 0.0 1015765
14:00+26sw2241100 0.0 1014467
17:00+28sw223841 0.0 1014726
20:00+24ssw11596 0.0 101392
25 july, sun
sun2523:00+21ene22644 0.0 101342
02:00+21ne325832 0.0 101235
05:00+20ne225787 0.0 101130
08:00+22ene2255100 0.0 101294
11:00+27s224888 0.0 1011837
14:00+28ssw335048 0.0 10111138
17:00+27ssw236292 0.0 1011725
20:00+23ssw128298 0.0 1011191
26 july, mon
mon2623:00+21nnw1189100 0.0 101125
02:00+21ne22871 0.0 101137
05:00+20ene22862 0.0 101138
08:00+23e227447 0.0 1013310
11:00+27s3356100 0.0 1013979
14:00+29sw344786 0.0 10131327
17:00+26sw2175100 0.1 1014488
20:00+24ssw3480100 0.1 1014275
27 july, tue
tue2723:00+21ne1193100 0.1 101625
02:00+20ene1284100 0.2 101535
05:00+20ene2284100 0.2 101642
08:00+22ene228442 0.5 101683
11:00+27s1252100 0.6 1016884
14:00+24sw248477 1.8 1016449
17:00+27ssw226160 1.7 1015681
20:00+22ssw119026 2.1 101533
28 july, wed
wed2823:00+20ene11940 0.0 101623
02:00+19ne22911 0.0 101633
05:00+18ne22935 0.0 101537
08:00+21ene12820 0.0 1016116
11:00+27sw21520 0.0 1016855
14:00+28wsw33487 0.0 10161101
17:00+29wsw22390 0.0 1015899
20:00+25w11520 0.0 101524